This is the latest recevied weather packets stored in our database for station/object DM4RS-1. If no packets are shown the sender has not sent any weather packets the latest 10 day(s).
| Time | Temp. | Humidity | Pressure | Rain* | Wind** | Luminosity | Snow |
|---|---|---|---|---|---|---|---|
| 1777524980 | -0.56° C | 55% | 1034.6 hPa | - | - | - | - |
| 1777524379 | -1.11° C | 53% | 1035.3 hPa | - | - | - | - |
| 1777523779 | -1.11° C | 54% | 1034.1 hPa | - | - | - | - |
| 1777523179 | -1.11° C | 53% | 1035.2 hPa | - | - | - | - |
| 1777522579 | -1.67° C | 54% | 1034.5 hPa | - | - | - | - |
| 1777521979 | -1.67° C | 56% | 1035 hPa | - | - | - | - |
| 1777521379 | -1.67° C | 56% | 1033.8 hPa | - | - | - | - |
| 1777520779 | -1.11° C | 57% | 1035.4 hPa | - | - | - | - |
| 1777520179 | -1.11° C | 57% | 1032.7 hPa | - | - | - | - |
| 1777519579 | -1.11° C | 57% | 1034.4 hPa | - | - | - | - |
| 1777518979 | -1.11° C | 57% | 1034.6 hPa | - | - | - | - |
| 1777518379 | -1.11° C | 59% | 1033.8 hPa | - | - | - | - |
| 1777517779 | -1.11° C | 57% | 1033.9 hPa | - | - | - | - |
| 1777517178 | -0.56° C | 57% | 1033.4 hPa | - | - | - | - |
| 1777516578 | -0.56° C | 59% | 1033.9 hPa | - | - | - | - |
| 1777515978 | -0.56° C | 59% | 1034.1 hPa | - | - | - | - |
| 1777515378 | -0.56° C | 61% | 1033.8 hPa | - | - | - | - |
| 1777514778 | -0.56° C | 60% | 1033.7 hPa | - | - | - | - |
| 1777514178 | 0° C | 61% | 1034.2 hPa | - | - | - | - |
| 1777513578 | 0° C | 61% | 1033.8 hPa | - | - | - | - |
| 1777512978 | 0° C | 62% | 1034.8 hPa | - | - | - | - |
| 1777512378 | 0° C | 61% | 1034.1 hPa | - | - | - | - |
| 1777511778 | 0.56° C | 62% | 1034.6 hPa | - | - | - | - |
| 1777511178 | 0.56° C | 61% | 1033.8 hPa | - | - | - | - |
| 1777510578 | 0.56° C | 61% | 1034.3 hPa | - | - | - | - |
* Rain since midnight (hover to see other rain measurements)
** Current wind speed in m/s (hover to see current wind gust speed)